FW8992 Weather Reports


time (UTC)temp
F
wind
direction
speed
knots
gust
knots
rain 1hr
in
rain 24hr
in
rain mn
in
humidity
%
barometer
mb
20260506091540 49 40 0.9 7.8 0.00 0.00 0.00 85 1011.0
20260506090035 49 352 2.6 7.8 0.00 0.00 0.00 84 1010.9
20260506084604 50 9 2.6 8.7 0.00 0.00 0.00 84 1010.8
20260506083044 50 54 2.6 7.8 0.00 0.00 0.00 83 1010.7
20260506081550 50 13 2.6 8.7 0.00 0.00 0.00 83 1010.7
20260506073048 52 29 3.5 7.8 0.00 0.00 0.00 83 1011.0
20260506071545 52 21 3.5 8.7 0.00 0.00 0.00 83 1010.9
20260506061539 53 14 2.6 7.8 0.00 0.00 0.00 81 1010.8
20260506044618 56 36 4.3 13.9 0.00 0.00 0.00 74 1009.5
20260506043046 57 97 3.5 11.3 0.00 0.00 0.00 72 1009.9
20260506041553 58 9 5.2 12.2 0.00 0.00 0.00 70 1009.9
20260506040043 59 60 2.6 9.6 0.00 0.00 0.00 68 1009.8
20260506034605 60 42 2.6 8.7 0.00 0.00 0.00 66 1009.8
20260506033039 62 44 2.6 11.3 0.00 0.00 0.00 64 1009.8
20260506031545 63 360 2.6 10.4 0.00 0.00 0.00 63 1009.6
20260506030045 65 11 3.5 8.7 0.00 0.00 0.00 62 1009.2
20260506024544 66 58 1.7 7.0 0.00 0.00 0.00 60 1008.8
20260506023101 67 36 1.7 7.0 0.00 0.00 0.00 58 1008.8
20260506021539 68 20 2.6 10.4 0.00 0.00 0.00 57 1008.5
20260506020046 68 11 2.6 7.8 0.00 0.00 0.00 56 1008.3
20260506014545 69 83 2.6 7.0 0.00 0.00 0.00 55 1008.0
20260506013043 70 22 1.7 11.3 0.00 0.00 0.00 53 1007.9
20260506011544 71 42 2.6 8.7 0.00 0.00 0.00 53 1007.3
20260506010051 72 44 2.6 7.8 0.00 0.00 0.00 52 1007.3
20260506004559 73 40 3.5 10.4 0.00 0.00 0.00 51 1006.8
20260506003101 74 352 2.6 9.6 0.00 0.00 0.00 51 1006.9
20260506001544 75 348 2.6 9.6 0.00 0.00 0.00 50 1006.5
20260506000043 76 9 1.7 10.4 0.00 0.00 0.00 51 1006.3
20260505234559 77 29 4.3 12.2 0.00 0.00 0.00 49 1006.3
20260505233040 78 51 4.3 13.9 0.00 0.00 0.00 49 1005.5
20260505231540 81 306 3.5 13.9 0.00 0.00 0.00 46 1005.6
20260505230042 83 347 4.3 9.6 0.00 0.00 0.00 41 1006.2
20260505224543 85 360 4.3 13.9 0.00 0.00 0.00 37 1005.7
20260505223044 88 16 4.3 11.3 0.00 0.00 0.00 35 1005.3
20260505221543 89 30 2.6 7.8 0.00 0.00 0.00 36 1004.8
20260505220055 89 65 2.6 7.8 0.00 0.00 0.00 34 1005.0
20260505214541 91 28 3.5 10.4 0.00 0.00 0.00 31 1004.9
20260505213042 91 227 4.3 9.6 0.00 0.00 0.00 28 1005.0
20260505211551 90 115 1.7 8.7 0.00 0.00 0.00 35 1005.2
20260505210043 90 221 3.5 7.8 0.00 0.00 0.00 34 1005.4
20260505204545 90 211 4.3 7.8 0.00 0.00 0.00 33 1005.4
20260505203049 89 138 3.5 7.8 0.00 0.00 0.00 38 1005.3
20260505201546 89 168 3.5 8.7 0.00 0.00 0.00 38 1006.0
20260505200043 89 217 2.6 7.8 0.00 0.00 0.00 36 1006.2
20260505194545 88 96 2.6 9.6 0.00 0.00 0.00 40 1006.2
20260505193046 88 202 2.6 8.7 0.00 0.00 0.00 39 1006.4
20260505191551 87 215 3.5 10.4 0.00 0.00 0.00 40 1006.6
20260505190044 86 232 1.7 9.6 0.00 0.00 0.00 44 1006.7
20260505184545 86 146 1.7 9.6 0.00 0.00 0.00 45 1006.8
20260505183041 85 209 4.3 9.6 0.00 0.00 0.00 46 1007.0
20260505181542 84 264 3.5 11.3 0.00 0.00 0.00 45 1007.2
20260505180049 83 222 5.2 10.4 0.00 0.00 0.00 49 1007.4
20260505174604 83 311 5.2 12.2 0.00 0.00 0.00 48 1007.2
20260505173046 82 240 3.5 10.4 0.00 0.00 0.00 52 1007.1
20260505171542 81 216 5.2 13.0 0.00 0.00 0.00 52 1007.2
20260505170100 80 232 3.5 10.4 0.00 0.00 0.00 58 1007.2
20260505164542 79 244 5.2 12.2 0.00 0.00 0.00 58 1007.1
20260505163046 78 189 4.3 13.0 0.00 0.00 0.00 60 1007.1
20260505161554 77 229 7.0 14.8 0.00 0.00 0.00 61 1007.1
20260505153053 75 229 7.8 13.9 0.00 0.00 0.00 64 1006.8
20260505151546 75 229 7.8 15.6 0.00 0.00 0.00 67 1006.5
20260505124544 67 221 7.0 13.0 0.00 0.00 0.00 81 1005.3
20260505123101 67 184 6.1 13.9 0.00 0.00 0.00 81 1005.2
20260505121539 67 207 7.8 16.5 0.00 0.00 0.00 81 1005.1
20260505120046 67 167 7.8 13.9 0.00 0.00 0.00 81 1005.1
20260505114603 67 212 8.7 14.8 0.00 0.00 0.00 80 1005.0
20260505113042 67 202 8.7 18.2 0.00 0.00 0.00 80 1004.8
20260505111555 67 203 10.4 19.1 0.00 0.00 0.00 80 1004.7
20260505101544 67 165 8.7 18.2 0.00 0.00 0.00 79 1004.8
20260505100041 67 217 7.8 13.0 0.00 0.00 0.00 79 1004.7
20260505094542 68 184 7.0 17.4 0.00 0.00 0.00 78 1004.6
20260505093039 68 205 6.1 14.8 0.00 0.00 0.00 78 1004.8